Location: *
(37.5724°S, 58.0067°E)
Time: 11:35:42
(UTC+00:00)

Okean-O - Pass Details

Date: 26 September 2020
Orbit: 638 x 641 km, 98.2° (Epoch: 29 October)

Event Time Altitude Azimuth Distance (km) Brightness Sun altitude
Rises 15:58:45 0° 176° (S) 2,982 6.3 -22.2°
Reaches altitude 10° 16:01:04 10° 182° (S) 2,065 5.5 -22.6°
Maximum altitude 16:05:17 41° 252° (WSW) 943 3.9 -23.4°
Drops below altitude 10° 16:09:27 10° 322° (NW) 2,039 5.4 -24.2°
Sets 16:11:44 0° 328° (NNW) 2,940 6.1 -24.6°
